Regional Weather Roundup
Issued by NWS

Home | Current Version | Previous Version | Graphics & Text | Print | Product List | Glossary On
Versions: 1 2 3 4 5 6 7 8 9 10 11 12 13 14 15 16 17 18 19 20 21 22 23 24 25 26 27 28 29 30 31 32 33 34 35 36 37 38 39 40 41 42 43 44 45 46 47 48 49 50
000
ASUS43 KDMX 221007
RWRIA

WEATHER ROUNDUP FOR IOWA
NATIONAL WEATHER SERVICE DES MOINES IA
500 AM CDT FRI AUG 22 2014

NOTE: "FAIR" INDICATES FEW OR NO CLOUDS BELOW 12,000 FEET WITH NO
SIGNIFICANT WEATHER AND/OR OBSTRUCTIONS TO VISIBILITY.

* - THESE STATIONS ARE NOT NWS STATIONS...THUS NOT UNDER NWS
QUALITY CONTROL.  THEY ALSO DO NOT REPORT WEATHER SUCH
AS PRECIPITATION OR FOG.

IAZ001>003-012>014-020>022-031>034-043>046-221100-
   NORTHWEST IOWA

CITY           SKY/WX    TMP DP  RH WIND       PRES   REMARKS
CARROLL *      CLEAR     73  72  94 SW3       29.88R
CHEROKEE *     MOCLDY    72  72 100 N5        29.89S FOG
DENISON *      PTCLDY    73  73 100 CALM      29.87R FOG
LE MARS *      CLEAR     70  70 100 N5        29.91R
ORANGE CITY *  CLEAR     73  70  88 NE3       29.92R
SHELDON *      CLEAR     66  66 100 CALM      29.90S FOG
SIOUX CITY     MOCLDY    73  71  93 NW6       29.89R
SPENCER        MOCLDY    67  65  93 NW3       29.91S
STORM LAKE *   CLEAR     72  72 100 N6        29.90F FOG
$$

IAZ055>058-069>071-079>083-090>094-221100-
   SOUTHWEST IOWA

CITY           SKY/WX    TMP DP  RH WIND       PRES   REMARKS
ATLANTIC *     CLOUDY    72  70  94 SW6       29.88R
AUDUBON *      CLEAR     73  72  94 SW5       29.90R
CLARINDA *     CLEAR     73  70  88 CALM      29.90F
COUNCIL BLFS * MOCLDY    72  72 100 SE6       29.88S
CRESTON *      CLEAR     72  70  94 SE5       29.90F
HARLAN  *      MOCLDY    72  72 100 CALM      29.92S
LAMONI         CLOUDY    73  69  87 SE6       29.92F
RED OAK *      PTCLDY    72  70  94 S3        29.88F
SHENANDOAH *     N/A     73  72  94 CALM      29.89F
$$

IAZ047>049-059>061-072>074-084-221100-
   CENTRAL IOWA

CITY           SKY/WX    TMP DP  RH WIND       PRES   REMARKS
AMES           CLOUDY    72  71  97 CALM      29.85F
ANKENY *       MOCLDY    73  72  94 MISG      29.85F
CHARITON *     DRIZZLE   73  70  88 SW7       29.89F
DES MOINES     TSTM      74  70  87 CALM      29.82F
GRINNELL*      LGT RAIN  75  72  88 W8        29.89R
KNOXVILLE *    LGT RAIN  73  70  88 SW5G13    29.83F
MARSHALLTOWN   LGT RAIN  75  73  93 W5        29.86F
PELLA *        LGT RAIN  75  72  88 CALM      29.85F
PERRY *        LGT RAIN  72  70  94 CALM      29.86R
$$

IAZ004>006-015-016-023>025-035-036-221100-
   NORTH CENTRAL IOWA

CITY           SKY/WX    TMP DP  RH WIND       PRES   REMARKS
ALGONA *       MOCLDY    72  72 100 CALM      29.89F FOG
CLARION *      CLOUDY    72  72 100 CALM      29.89S
ESTHERVILLE    PTCLDY    65  64  97 NW3       29.90F
FORT DODGE *   CLOUDY    72  70  94 CALM      29.88F
MASON CITY     CLOUDY    72  71  97 W5        29.90F FOG
FOREST CITY *  PTCLDY    72  72 100 CALM      29.89F FOG
IOWA FALLS *     N/A     73  72  94 CALM      29.89F FOG
$$

IAZ007>011-017>019-026>030-037>042-050>054-066-221100-
   NORTHEAST IOWA

CITY           SKY/WX    TMP DP  RH WIND       PRES   REMARKS
CEDAR RAPIDS   CLOUDY    73  73 100 E5        29.85F FOG
CHARLES CITY * CLOUDY    70  70 100 CALM      29.90S FOG
CLINTON *      PTCLDY    73  72  94 E3        29.91R
DECORAH *      FOG       70  70 100 S3        29.88F VSB 1/2
DUBUQUE        PTCLDY    72  71  97 CALM      29.90F
MONTICELLO *   FOG       68  68 100 CALM      29.87F VSB 1/4
OELWEIN *      PTCLDY    70  70 100 E5        29.90S FOG
WATERLOO       CLOUDY    70  69  97 NE5       29.86F FOG
$$

IAZ064-065-067-068-078-221100-
   EAST CENTRAL IOWA

CITY           SKY/WX    TMP DP  RH WIND       PRES   REMARKS
DAVENPORT      MOCLDY    73  71  93 S3        29.89R
IOWA CITY      FOG       72  72 100 S3        29.87F VSB 1/4
MT. PLEASANT * LGT RAIN  77  75  94 CALM      29.90R
MUSCATINE *    MOCLDY    77  75  94 SE5       29.87S
QUAD CITIES    CLOUDY    76  72  87 W3        29.88R
$$

IAZ062-063-075>077-085>089-095>099-221100-
   SOUTHEAST IOWA

CITY           SKY/WX    TMP DP  RH WIND       PRES   REMARKS
BURLINGTON     CLOUDY    76  75  97 S6        29.88S
FAIRFIELD *    CLOUDY    79  72  78 W17G32    29.89R HX  82
FORT MADISON * MOCLDY    79  75  89 S3        29.89R HX  82
KEOKUK *       PTCLDY    79  73  83 SW10      29.89R HX  82
OSKALOOSA *    LGT RAIN  75  72  88 W12       29.90R
CENTERVILLE *  RAIN      73  73 100 E3        29.98R
OTTUMWA        CLOUDY    78  73  84 SW8       29.91R HX  81
WASHINGTON *   CLOUDY    75  75 100 CALM      29.89R FOG
$$

ABBREVIATIONS USED IN REMARKS
   TC - TEMPERATURES IN CELSIUS
  WCI - WIND CHILL INDEX
   HX - HEAT INDEX
  VSB - VISIBILITY
$$



USA.gov is the U.S. government's official web portal to all federal, state and local government web resources and services.